Regional Weather Roundup
Issued by NWS

Home | Current Version | Previous Version | Text Only | Print | Product List | Glossary Off
Versions: 1 2 3 4 5 6 7 8 9 10 11 12 13 14 15 16 17 18 19 20 21 22 23 24 25 26 27 28 29 30 31 32 33 34 35 36 37 38 39 40 41 42 43 44 45 46 47 48 49 50

000
ASUS43 KOAX 200710
RWRNE

WEATHER ROUNDUP FOR NEBRASKA
NATIONAL WEATHER SERVICE OMAHA NE
200 AM CDT MON OCT 20 2014

NOTES: SATELLITE DATA IS BEING USED TO AUGMENT CLOUD COVER ABOVE
       12000 FEET.
       "FAIR" INDICATES FEW OR NO CLOUDS BELOW 12,000 FEET WITH NO
       SIGNIFICANT WEATHER AND/OR OBSTRUCTIONS TO VISIBILITY.

  * THESE STATIONS DO NOT REPORT WEATHER SUCH AS RAIN...SNOW OR FOG.

NEZ001>004-019>022-054>056-200800-
NEBRASKA PANHANDLE

CITY           SKY/WX    TMP DP  RH WIND       PRES   REMARKS
SCOTTSBLUFF    CLEAR     42  35  76 N3        30.13R
ALLIANCE       CLEAR     34  32  92 CALM      30.13R
CHADRON        CLEAR     41  37  86 CALM      30.10R
KIMBALL        CLEAR     42  35  73 SW7       30.15R
SIDNEY         CLEAR     38  33  82 SW5       30.15R WCI  34
$$

NEZ057>060-069>072-079>082-200800-
SOUTHWEST NEBRASKA

CITY           SKY/WX    TMP DP  RH WIND       PRES   REMARKS
NORTH PLATTE   CLEAR     39  36  89 W5        30.09R
IMPERIAL       CLEAR     46  37  71 W5        30.10R
LEXINGTON      CLEAR     42  40  93 NW7       30.07R
MCCOOK         CLEAR     42  39  89 W5        30.08R
OGALLALA       CLEAR     39  35  83 W6        30.11R
$$

NEZ005>010-023>029-035>040-094-200800-
NORTH CENTRAL NEBRASKA

CITY           SKY/WX    TMP DP  RH WIND       PRES   REMARKS
VALENTINE      CLEAR     42  35  76 W7        30.08R
AINSWORTH      CLEAR     44  37  74 W5        30.08R
BROKEN BOW     CLEAR     41  35  79 CALM      30.06R
O`NEILL        CLEAR     46  40  77 NW8       30.05R
ORD            CLEAR     41  37  86 NW5       30.04R
THEDFORD       CLEAR     42  36  79 W3        30.10R
$$

NEZ041-046>049-061>064-073>077-083>087-200800-
SOUTH CENTRAL NEBRASKA

CITY           SKY/WX    TMP DP  RH WIND       PRES   REMARKS
GRAND ISLAND   FAIR      47  44  90 W6        30.03R
AURORA         FAIR      48  45  88 W5        30.02R
HASTINGS       FAIR      49  43  80 W6        30.03R
HEBRON         FAIR      44  42  92 CALM      30.02R
HOLDREGE       FAIR      45  42  90 CALM      30.05R
KEARNEY *      FAIR      46  41  81 W7        30.05R
YORK           FAIR      46  45  93 W8        30.01R
$$

NEZ011>018-030>034-042>045-200800-
NORTHEAST NEBRASKA

CITY           SKY/WX    TMP DP  RH WIND       PRES   REMARKS
NORFOLK        FAIR      47  40  76 W6        30.00R
ALBION         FAIR      43  38  82 NW7       30.02R
BLAIR          FAIR      56  48  75 W6        29.96R
COLUMBUS *     FAIR      45  37  76 W3        30.01R
FREMONT        FAIR      49  46  92 NW5       29.98R
TEKAMAH        FAIR      46  42  86 NW5       29.97R
WAYNE          FAIR      44  39  81 CALM      30.00R
$$

NEZ050>053-065>068-078-088>093-200800-
SOUTHEAST NEBRASKA

CITY           SKY/WX    TMP DP  RH WIND       PRES   REMARKS
LINCOLN        FAIR      53  47  79 SW3       30.01R
OMAHA EPPLEY   FAIR      52  47  83 CALM      29.97R
BEATRICE       FAIR      48  45  89 CALM      30.01R
FALLS CITY     FAIR      53  48  83 CALM      29.99R
NEBRASKA CITY  FAIR      54  46  74 W10       29.98R
PLATTSMOUTH    FAIR      56  47  73 W7        29.97R
$$

NEZ044-045-051>053-067-200800-
OMAHA AREA

CITY           SKY/WX    TMP DP  RH WIND       PRES   REMARKS
OMAHA EPPLEY   FAIR      52  47  83 CALM      29.97R
BLAIR          FAIR      56  48  75 W6        29.96R
FREMONT        FAIR      49  46  92 NW5       29.98R
MILLARD        FAIR      51  48  89 CALM      29.96R
OFFUTT AFB     FAIR      50  50  99 NW7       29.96R
PLATTSMOUTH    FAIR      56  47  73 W7        29.97R
WAHOO          FAIR      55  47  74 NW6       29.97R
$$


USA.gov is the U.S. government's official web portal to all federal, state and local government web resources and services.